This demonstration page uses our WeatherBlox Daily Observations layout. Learn more.

Left ArrowRight Arrow

38.20091, -84.87328

Hourly Observations for July 7, 2021

Temp ( °F °C ) Dew Point ( °F °C ) Humidity (%) Winds ( mph kmh ) Pressure ( in mb ) Visibility ( mi km ) Precip ( " mm )
12:53 am 00:53 Clear 71 21.7 69 20.6 94 94 Calm 30.04 1017 7 11 0.00 0.00
1:53 am 01:53 Clear 72 22.2 69 20.6 91 91 Calm 30.03 1017 9 14 0.00 0.00
2:53 am 02:53 Clear 70 21.1 69 20.6 97 97 Calm 30.02 1017 8 13 0.00 0.00
3:53 am 03:53 Mostly Clear with Mist and Fog 70 21.1 68 20 93 93 Calm 30.01 1016 6 10 0.00 0.00
4:53 am 04:53 Mostly Cloudy 69 20.6 67 19.4 93 93 Calm 30.01 1016 7 11 0.00 0.00
5:53 am 05:53 Clear 69 20.6 67 19.4 93 93 SSW 5 7 30.01 1016 7 11 0.00 0.00
6:53 am 06:53 Sunny with Mist and Fog 69 20.6 67 19.4 93 93 Calm 30.01 1016 6 10 0.00 0.00
7:53 am 07:53 Sunny 73 22.8 70 21.1 90 90 Calm 30.01 1016 8 13 0.00 0.00
8:53 am 08:53 Sunny 77 25 71 21.7 82 82 SSW 5 7 30.02 1017 10 16 0.00 0.00
9:53 am 09:53 Sunny 81 27.2 71 21.7 72 72 SW 8 13 30.02 1017 10 16 0.00 0.00
10:53 am 10:53 Sunny 84 28.9 71 21.7 65 65 SW 8 13 30.01 1016 10 16 0.00 0.00
11:53 am 11:53 Sunny 85 29.4 71 21.7 63 63 VRB 6 9 30.00 1016 10 16 0.00 0.00
12:53 pm 12:53 Partly Cloudy 87 30.6 71 21.7 59 59 VRB 6 9 29.99 1016 10 16 0.00 0.00
1:53 pm 13:53 Mostly Sunny 88 31.1 69 20.6 54 54 S 8 13 29.97 1015 10 16 0.00 0.00
2:53 pm 14:53 Mostly Cloudy 85 29.4 70 21.1 61 61 SSW 12 19 29.95 1014 10 16 0.00 0.00
3:53 pm 15:53 Mostly Sunny 85 29.4 70 21.1 61 61 SSW 13 20 29.94 1014 10 16 0.00 0.00
4:53 pm 16:53 Mostly Cloudy with Light Rain 77 25 70 21.1 79 79 S 9 15 29.95 1014 7 11 0.04 1.02
5:53 pm 17:53 Sunny 82 27.8 70 21.1 67 67 SSW 15 24 29.93 1013 10 16 0.00 0.00
6:53 pm 18:53 Cloudy 79 26.1 68 20 69 69 S 14 22 29.92 1013 10 16 0.00 0.00
7:53 pm 19:53 Mostly Sunny 79 26.1 69 20.6 72 72 S 13 20 29.92 1013 10 16 0.00 0.00
8:53 pm 20:53 Mostly Sunny 76 24.4 68 20 77 77 SSW 13 20 29.93 1014 10 16 0.00 0.00
9:53 pm 21:53 Clear 75 23.9 69 20.6 82 82 S 6 9 29.93 1014 10 16 0.00 0.00
10:53 pm 22:53 Partly Cloudy 75 23.9 69 20.6 82 82 S 6 9 29.93 1014 10 16 0.00 0.00
11:53 pm 23:53 Mostly Clear 74 23.3 70 21.1 88 88 S 6 9 29.93 1014 10 16 0.00 0.00

Powered by AerisWeather